Regional Weather Roundup
Issued by NWS Sioux Falls, SD

Home | Current Version | Previous Version | Text Only | Print | Product List | Glossary On
Versions: 1 2 3 4 5 6 7 8 9 10 11 12 13 14 15 16 17 18 19 20 21 22 23 24 25 26 27 28 29 30 31 32 33 34 35 36 37 38 39 40 41 42 43 44 45 46 47 48 49 50
000
ASUS43 KFSD 291410
RWRFSD

WEATHER ROUNDUP FOR SE SOUTH DAKOTA/SW MINNESOTA/NW IOWA
NATIONAL WEATHER SERVICE SIOUX FALLS SD
800 AM CST MON DEC 29 2014

NOTE: "FAIR" INDICATES FEW OR NO CLOUDS BELOW 12,000 FEET WITH NO
SIGNIFICANT WEATHER AND OR OBSTRUCTIONS TO VISIBILITY.


SDZ038>040-050-052>070-291500-
SOUTHEAST SOUTH DAKOTA

CITY           SKY/WX    TMP DP  RH WIND       PRES   REMARKS
CHAMBERLAIN    FLURRIES   2  -3  79 N12       30.51R WCI -14
HURON          CLOUDY     1  -4  79 N14       30.56R WCI -17
MADISON        FAIR       0  -2  92 NE13      30.46R WCI -18
MITCHELL       MOCLDY     5  -1  76 N12       30.53R WCI -11
SIOUX FALLS    MOCLDY     5   0  79 NE13      30.47R WCI -12
WINNER         MIX PCPN   6   0  76 N18       30.47R WCI -13
YANKTON        MOCLDY    10   5  79 N12       30.48R WCI  -4
$$

MNZ071-072-080-081-089-090-097-098-291500-
SOUTHWEST MINNESOTA

CITY           SKY/WX    TMP DP  RH WIND       PRES   REMARKS
FAIRMONT       MOCLDY     9   0  66 N13       30.45R WCI  -7
JACKSON        PTCLDY     9   1  72 N14       30.44R WCI  -8
LUVERNE        CLOUDY     7   1  78 N12G17    30.47R WCI  -9
MARSHALL       PTCLDY    -2  -8  78 N15       30.53R WCI -22
MONTEVIDEO     PTCLDY    -2  -6  84 N10       30.57R WCI -19
PIPESTONE      MOCLDY     0  -4  85 NE10      30.45R WCI -17
REDWOOD FALLS  PTCLDY     5  -1  76 N9G18     30.53R WCI  -9
TRACY          MOCLDY     0  -4  83 N13       30.51R WCI -18
WINDOM         PTCLDY     7   1  78 N13       30.46R WCI  -9
WORTHINGTON    CLEAR      3 N/A N/A N15       30.44R WCI -15
$$

IAZ001>003-012>014-020>022-031-032-NEZ013-014-SDZ071-291500-
NORTHWEST IOWA

CITY           SKY/WX    TMP DP  RH WIND       PRES   REMARKS
CHEROKEE       LGT SNOW  15  12  89 NE10      30.43R WCI   2
DENISON        FLURRIES  19  16  86 NE17      30.36R WCI   4
ESTHERVILLE    PTCLDY     7   3  84 N13       30.44R WCI  -9
LE MARS        LGT SNOW  14  10  85 NE13      30.45R WCI   0
ORANGE CITY    CLOUDY    10   7  85 NE14      30.42R WCI  -5
SHELDON        CLOUDY     9   3  78 NE14G22   30.42R WCI  -8
SIOUX CITY     LGT SNOW  17  12  80 NE10      30.43R WCI   5
SPENCER        PTCLDY    10   3  73 N15       30.43R WCI  -7
STORM LAKE     LGT SNOW  16  12  86 NE15G23   30.39R WCI   1
$$

ABBREVIATIONS USED IN REMARKS
   TC - TEMPERATURE IN CELSIUS
  WCI - WIND CHILL INDEX
   HX - HEAT INDEX
  VSB - VISIBILITY



USA.gov is the U.S. government's official web portal to all federal, state and local government web resources and services.